Location: ???????
(52.3000°N, 54.4667°E)
Time: 18:46:22
(UTC+00:00)

Cosmos 1825 Rocket - Pass Details

Date: 24 January 2020
Orbit: 604 x 630 km, 82.5° (Epoch: 28 February)

Event Time Altitude Azimuth Distance (km) Brightness Sun altitude
Rises 13:46:00 0° 162° (SSE) 2,866 7.0 -8.1°
Reaches altitude 10° 13:48:23 10° 152° (SSE) 1,963 6.1 -8.4°
Maximum altitude 13:52:13 31° 90° (E) 1,068 4.3 -9.0°
Drops below altitude 10° 13:56:04 10° 28° (NNE) 1,968 5.7 -9.5°
Sets 13:58:27 0° 18° (NNE) 2,876 6.6 -9.9°
